Miscellaneous Local Product
Issued by NWS Hastings, NE

Home | Current Version | Previous Version | Graphics & Text | Print | Product List | Glossary On
Versions: 1 2 3 4 5 6 7 8 9 10 11 12 13 14 15 16 17 18 19 20 21 22 23 24 25 26 27 28 29 30 31 32 33 34 35 36 37 38 39 40 41 42 43 44 45 46 47 48 49 50
000
AXUS43 KGID 142302
MISGRI

GID CWA HOURLY WEATHER ROUNDUP
NATIONAL WEATHER SERVICE HASTINGS NE
600 PM CDT SUN SEP 14 2014

NOTE: "FAIR" INDICATES FEW OR NO CLOUDS BELOW 12,000 FEET WITH NO
SIGNIFICANT WEATHER AND/OR OBSTRUCTIONS TO VISIBILITY.

...SOUTH CENTRAL NEBRASKA...

CITY           SKY/WX    TMP DP  RH WIND       PRES   REMARKS
GRAND ISLAND   CLOUDY    69  53  56 SE14G20   30.03F
HASTINGS       CLOUDY    67  51  56 S14       30.04S
KEARNEY        CLOUDY    66  54  63 SE9       30.03F
ORD            CLOUDY    66  53  63 E6        30.03S
YORK           CLOUDY    66  54  63 SE7       30.06R
AURORA         CLOUDY    68  51  53 SE9       30.05S
LEXINGTON      CLOUDY    68  57  66 SE14      30.01S
HOLDREGE       PTSUNNY   68  53  59 SE14G21   30.00F
HEBRON         CLOUDY    69  51  53 SE9       30.05S

...NEBRASKA PANHANDLE...

CITY           SKY/WX    TMP DP  RH WIND       PRES   REMARKS
CHADRON        MOSUNNY   62  45  53 NE16      30.05R
ALLIANCE       MOSUNNY   71  53  52 N10       30.01R
SCOTTSBLUFF    MOSUNNY   69  51  52 NE10      30.02R
SIDNEY         MOSUNNY   76  45  33 S5        30.00F

...WESTERN AND NORTH CENTRAL NEBRASKA...

CITY           SKY/WX    TMP DP  RH WIND       PRES   REMARKS
VALENTINE      CLOUDY    61  44  53 NE14      30.06S
AINSWORTH      CLOUDY    60  48  64 E9        30.05F
ONEILL         CLOUDY    64  53  69 NE9       30.06S
BROKEN BOW     CLOUDY    69  53  56 S12       30.03R
IMPERIAL       SUNNY     76  56  49 SE12G23   29.95F
NORTH PLATTE   MOSUNNY   71  55  56 SE10      29.99F
MCCOOK         SUNNY     75  57  53 S14       29.97F

...EASTERN NEBRASKA...

CITY           SKY/WX    TMP DP  RH WIND       PRES   REMARKS
NORFOLK        CLOUDY    68  51  54 SE8       30.06F
SO SIOUX CITY  MOSUNNY   69  50  50 S7        30.09F
TEKAMAH        CLOUDY    69  51  52 E6        30.07F
ALBION         MOSUNNY   68  51  54 S9        30.05S
OMAHA EPPLEY   PTSUNNY   71  48  43 SE14      30.06F
OFFUTT AFB     MOSUNNY   70  53  54 SE12      30.06F
LINCOLN        CLOUDY    70  51  51 SE9       30.06F
NEBRASKA CITY  MOSUNNY   70  45  39 S10       30.07F
BEATRICE       CLOUDY    69  52  54 S8        30.06F
FALLS CITY     PTSUNNY   71  54  54 S8        30.07F

...NORTHERN KANSAS...

CITY           SKY/WX    TMP DP  RH WIND       PRES   REMARKS
GOODLAND       SUNNY     74  56  53 S14       30.00F
HILL CITY      SUNNY     82  59  45 SE9       29.97F
NORTON         CLEAR     75  54  46 SE13G20   29.96F
PHILLIPSBURG   SUNNY     75  57  53 E12       29.99F
SMITH CENTER   SUNNY     72  57  60 E16       30.01F
BELOIT         CLOUDY    73  57  56 SE9       30.01S
HAYS           CLOUDY    82  63  51 S14       29.96F
RUSSELL        CLOUDY    79  61  53 SE10      29.96F
CONCORDIA      PTSUNNY   70  59  68 SE8       30.02F
SALINA         SUNNY     78  59  51 SE14      30.02F
TOPEKA         PTSUNNY   74  56  53 SE17      30.07F



USA.gov is the U.S. government's official web portal to all federal, state and local government web resources and services.